Location: Domont
(49.0278°N, 2.3264°E)
Time: 03:41:38
(UTC+00:00)

Tiangong - Visible Passes

Search period start: 27 January 2022 00:00
Search period end: 06 February 2022 00:00
Orbit: 382 x 387 km, 41.5° (Epoch: 26 January)

Date Brightness Start Highest point End Pass type
(mag) Time Alt. Az. Time Alt. Az. Time Alt. Az.
28 Jan 3.9 18:59:48 10° SSW 19:00:17 12° SSW 19:00:17 12° SSW visible
29 Jan 3.6 18:00:58 10° S 18:02:12 12° SSE 18:03:25 10° SE visible
30 Jan 3.1 18:36:24 10° SW 18:38:42 18° S 18:38:44 18° S visible
31 Jan 3.4 17:37:06 10° SSW 17:39:04 15° SSE 17:41:02 10° SE visible
31 Jan 3.7 19:12:48 10° SW 19:13:59 17° SW 19:13:59 17° SW visible
01 Feb 3.1 18:13:08 10° SW 18:15:34 20° S 18:17:01 15° SE visible
02 Feb 3.1 18:49:43 10° SW 18:52:06 19° S 18:52:15 19° S visible
03 Feb 3.2 17:49:54 10° SW 17:52:21 21° S 17:54:50 10° SE visible
03 Feb 4.1 19:26:54 10° SW 19:27:29 12° SW 19:27:29 12° SW visible
04 Feb 3.5 18:26:40 10° SW 18:28:48 17° SSW 18:30:33 12° SSE visible
05 Feb 3.4 17:26:40 10° SW 17:29:02 19° S 17:31:25 10° SE visible
